Location: Allie Creek
(37.5926°N, 89.8526°W)
Time: 04:14:02
(UTC+00:00)

Cosmos 1943 Rocket - Pass Details

Date: 26 September 2023
Orbit: 812 x 843 km, 71.0° (Epoch: 29 November)

Event Time Altitude Azimuth Distance (km) Brightness Sun altitude
Rises 01:22:02 0° 358° (N) 3,407 5.6 -18.5°
Reaches altitude 10° 01:27:32 10° 41° (NE) 2,464 4.4 -19.6°
Enters shadow 01:27:42 10° 43° (NE) 2,458 4.3 -19.6°
